Total_Precipitation_Accumulation
0.18 0.18 0.23 0.25 0.24 0.23 0.26 0.32 0.36 0.44 0.53 0.61 0.75 0.96 1.24 1.35 1.44 1.40 1.22 1.16 1.28 1.52 1.72 1.69 1.73 1.76 1.63 1.58 1.64 1.82 1.77 1.51 1.28 1.29 1.12 0.94 0.78 0.90 0.94 0.92 0.94 0.94 1.01
0.12 0.11 0.13 0.15 0.16 0.17 0.18 0.24 0.32 0.42 0.51 0.60 0.77 0.94 1.08 1.08 1.26 1.41 1.39 1.30 1.29 1.44 1.57 1.83 1.92 1.84 1.85 1.97 1.99 2.30 2.43 2.01 1.59 1.58 1.69 1.42 1.20 0.95 0.81 0.87 0.90 0.98 1.17
0.12 0.10 0.11 0.10 0.11 0.12 0.13 0.17 0.24 0.35 0.48 0.64 0.87 1.09 1.27 1.36 1.42 1.35 1.43 1.44 1.37 1.41 1.51 1.67 1.82 1.83 1.89 1.98 2.10 2.41 2.85 2.61 2.09 1.85 2.03 1.72 1.53 1.35 0.99 0.84 0.87 0.97 1.16
0.14 0.12 0.10 0.11 0.11 0.11 0.10 0.14 0.23 0.38 0.59 0.80 1.06 1.31 1.51 1.55 1.44 1.48 1.51 1.39 1.34 1.30 1.37 1.51 1.65 1.77 1.79 1.92 2.02 2.13 2.58 2.89 2.58 2.28 1.95 1.62 1.55 1.64 1.44 1.07 0.97 1.01 1.08
0.19 0.17 0.15 0.17 0.18 0.17 0.19 0.25 0.46 0.71 0.96 1.17 1.43 1.72 1.72 1.61 1.51 1.51 1.48 1.42 1.43 1.40 1.39 1.53 1.61 1.63 1.68 1.78 2.11 2.36 2.61 2.79 2.72 2.61 2.44 2.19 1.88 1.53 1.63 1.56 1.28 1.16 1.10
0.26 0.31 0.34 0.39 0.44 0.48 0.62 0.81 1.08 1.27 1.36 1.49 1.64 1.76 1.73 1.74 1.68 1.50 1.40 1.40 1.44 1.49 1.54 1.60 1.60 1.58 1.61 1.72 1.94 2.21 2.42 2.73 2.89 2.77 2.55 2.40 2.25 2.01 1.87 1.65 1.54 1.48 1.25
0.36 0.48 0.62 0.74 0.86 0.98 1.12 1.25 1.43 1.59 1.54 1.51 1.56 1.59 1.60 1.59 1.57 1.51 1.41 1.36 1.37 1.38 1.42 1.53 1.65 1.73 1.75 1.87 2.04 2.18 2.09 2.30 2.67 2.65 2.50 2.39 2.16 2.13 2.16 1.98 1.69 1.53 1.25
0.54 0.65 0.73 0.84 1.01 1.15 1.21 1.21 1.32 1.43 1.40 1.38 1.35 1.32 1.37 1.40 1.35 1.28 1.26 1.29 1.36 1.34 1.28 1.33 1.44 1.58 1.74 1.79 1.84 1.85 1.82 1.94 2.19 2.27 2.43 2.52 2.26 2.11 1.97 1.87 1.89 1.67 1.43
0.81 0.96 1.06 1.18 1.22 1.26 1.32 1.24 1.23 1.29 1.30 1.24 1.15 1.13 1.18 1.24 1.25 1.19 1.20 1.19 1.18 1.11 1.03 1.04 1.08 1.16 1.25 1.32 1.48 1.56 1.67 1.71 1.83 1.99 2.12 2.26 2.34 2.25 2.00 1.91 1.88 1.84 1.66
1.05 1.34 1.59 1.76 1.58 1.31 1.21 1.17 1.09 1.10 1.19 1.17 1.10 1.06 1.13 1.14 1.12 1.15 1.12 1.11 1.11 1.03 0.96 0.92 0.87 0.84 0.83 0.87 1.05 1.24 1.35 1.46 1.62 1.81 1.93 1.95 2.00 2.18 2.13 1.95 1.92 1.83 1.70
1.20 1.35 1.55 1.72 1.62 1.31 1.08 1.09 1.10 1.06 1.04 1.05 1.07 1.07 1.04 0.93 0.92 0.97 0.97 0.96 0.96 1.01 1.00 0.91 0.84 0.91 0.91 0.88 0.94 1.00 1.04 1.11 1.25 1.40 1.53 1.69 1.93 2.21 2.24 2.18 2.06 1.92 1.77
1.11 1.09 1.15 1.21 1.23 1.09 0.90 0.87 1.00 1.06 1.02 0.99 1.02 1.01 0.91 0.85 0.81 0.80 0.77 0.68 0.66 0.68 0.78 0.86 0.81 0.80 0.83 0.85 0.92 0.93 0.96 0.97 1.05 1.15 1.27 1.44 1.74 2.08 2.29 2.37 2.28 2.12 1.96
1.08 1.05 0.96 0.90 0.93 0.90 0.83 0.80 0.93 1.08 1.12 1.10 0.94 0.84 0.79 0.75 0.74 0.65 0.61 0.57 0.51 0.52 0.57 0.66 0.67 0.76 0.83 0.85 0.88 0.89 0.92 0.94 1.02 1.16 1.21 1.27 1.47 1.66 1.87 2.06 2.18 2.17 2.14
0.78 0.72 0.67 0.62 0.62 0.65 0.69 0.75 0.86 0.95 1.08 1.20 1.09 0.94 0.83 0.75 0.70 0.62 0.58 0.53 0.51 0.54 0.61 0.73 0.77 0.73 0.70 0.75 0.86 0.90 0.85 0.83 0.88 0.96 1.05 1.15 1.20 1.35 1.50 1.60 1.79 2.00 2.23
0.39 0.38 0.38 0.36 0.35 0.35 0.36 0.46 0.59 0.75 0.94 1.16 1.17 1.02 0.94 0.86 0.72 0.65 0.64 0.61 0.64 0.61 0.63 0.72 0.83 0.90 0.84 0.82 0.90 0.87 0.85 0.85 0.83 0.88 0.88 0.95 0.97 1.03 1.22 1.26 1.48 1.80 2.06
0.26 0.26 0.24 0.22 0.17 0.16 0.18 0.20 0.29 0.46 0.64 0.81 0.90 0.87 0.78 0.67 0.63 0.62 0.60 0.56 0.54 0.50 0.49 0.53 0.60 0.69 0.73 0.94 0.90 0.74 0.70 0.76 0.82 0.87 0.87 0.89 0.83 0.81 0.88 1.01 1.14 1.43 1.64
0.20 0.19 0.20 0.20 0.18 0.17 0.16 0.17 0.21 0.27 0.38 0.51 0.61 0.61 0.56 0.49 0.45 0.49 0.49 0.46 0.41 0.42 0.39 0.38 0.39 0.45 0.60 0.68 0.53 0.51 0.58 0.71 0.83 0.90 0.92 0.89 0.84 0.88 0.89 0.91 0.92 0.99 1.17
0.18 0.18 0.18 0.16 0.15 0.13 0.12 0.13 0.16 0.19 0.21 0.26 0.30 0.32 0.32 0.31 0.32 0.34 0.34 0.34 0.33 0.31 0.30 0.38 0.45 0.46 0.48 0.54 0.44 0.44 0.54 0.74 0.87 0.88 0.83 0.89 0.91 0.94 1.00 0.93 1.00 0.95 0.94
0.10 0.08 0.08 0.07 0.05 0.05 0.04 0.05 0.06 0.07 0.08 0.08 0.10 0.13 0.15 0.18 0.20 0.20 0.23 0.31 0.34 0.35 0.38 0.49 0.56 0.50 0.43 0.47 0.48 0.54 0.69 0.81 0.89 0.86 0.85 0.93 0.97 1.10 1.15 1.06 1.11 1.07 1.03
0.02 0.02 0.02 0.02 0.01 0.01 0.01 0.01 0.01 0.01 0.02 0.02 0.02 0.03 0.04 0.05 0.08 0.11 0.13 0.18 0.25 0.32 0.39 0.41 0.39 0.39 0.46 0.52 0.51 0.64 0.82 0.94 1.04 0.99 0.99 1.17 1.12 1.10 1.05 1.03 1.17 1.14 0.99
0.00 0.00 0.00 0.00 0.00 0.00 0.00 0.00 0.00 0.01 0.02 0.03 0.03 0.03 0.02 0.01 0.02 0.03 0.04 0.07 0.12 0.16 0.18 0.20 0.24 0.32 0.47 0.53 0.56 0.76 0.85 0.92 1.07 1.09 1.05 0.98 1.11 1.06 0.98 0.98 1.03 1.17 1.05
0.00 0.00 0.01 0.00 0.00 0.00 0.00 0.00 0.00 0.00 0.01 0.02 0.03 0.02 0.01 0.01 0.01 0.03 0.03 0.03 0.04 0.07 0.11 0.14 0.19 0.25 0.32 0.40 0.47 0.60 0.73 0.82 0.99 1.07 0.97 0.87 1.10 1.06 0.97 0.89 0.91 1.05 1.12
0.00 0.00 0.01 0.01 0.00 0.00 0.00 0.00 0.00 0.00 0.01 0.02 0.02 0.02 0.02 0.02 0.02 0.02 0.03 0.02 0.04 0.06 0.08 0.13 0.19 0.25 0.30 0.32 0.39 0.47 0.56 0.68 0.87 0.93 0.94 0.95 0.99 0.91 0.87 0.96 0.99 1.01 1.03
0.00 0.00 0.00 0.01 0.01 0.00 0.00 0.00 0.01 0.01 0.01 0.01 0.01 0.01 0.02 0.02 0.02 0.03 0.03 0.03 0.03 0.06 0.10 0.17 0.23 0.27 0.30 0.32 0.40 0.48 0.52 0.61 0.71 0.73 0.77 0.81 0.78 0.78 0.82 0.88 0.98 1.03 1.07
0.00 0.00 0.00 0.01 0.00 0.00 0.00 0.01 0.01 0.01 0.00 0.01 0.01 0.01 0.02 0.03 0.03 0.02 0.02 0.03 0.04 0.06 0.12 0.16 0.20 0.21 0.24 0.28 0.37 0.51 0.58 0.68 0.78 0.80 0.74 0.75 0.75 0.75 0.75 0.80 0.83 0.88 0.88
0.00 0.00 0.00 0.00 0.01 0.00 0.00 0.00 0.00 0.00 0.00 0.01 0.00 0.01 0.01 0.02 0.03 0.04 0.03 0.03 0.03 0.04 0.06 0.07 0.10 0.17 0.20 0.18 0.22 0.32 0.47 0.63 0.84 1.07 1.08 1.07 1.02 0.93 0.82 0.75 0.70 0.68 0.71